Weather in Baranivka

Ukraine / Zhytomyr Region     50˚17′37″N   27˚39′59″E
temp.,
°C
wind,
m/s
gust,
m/s
humid.,
%
clouds,
%
prec.,
mm/h
press.,
hPa
HPBL,
m
3 december, thu
thu323:00−1˚se3686100 0.0 1025387
02:00−1˚se368496 0.0 1025294
05:00−2˚se379069 0.0 1024233
08:00−1˚se378974 0.0 1024356
11:00+1˚se51085100 0.0 1023510
14:00+2˚se5981100 0.0 1022591
17:00+1˚se5119099 0.0 1021590
20:00+1˚se5129399 0.0 1021508
4 december, fri
fri423:00+2˚se51294100 0.0 1020475
02:00+2˚se6119798 0.0 1019465
05:00+4˚sse71391100 0.0 1018698
08:00+3˚sse7138897 0.0 1019762
11:00+4˚sse81380100 0.0 1019859
14:00+6˚se71478100 0.0 1017944
17:00+6˚se8158799 0.0 1018775
20:00+5˚se81585100 0.0 1019754
5 december, sat
sat523:00+5˚se81586100 0.0 1020718
02:00+5˚se71485100 0.0 1020670
05:00+5˚se71385100 0.0 1020683
08:00+5˚se71384100 0.0 1021803
11:00+5˚se81381100 0.0 1022870
14:00+5˚se8138099 0.0 1022762
17:00+4˚se7128093 0.0 1023777
20:00+3˚se8128392 0.0 1024686
6 december, sun
sun623:00+2˚se71280100 0.0 1025668
02:00se6128497 0.0 1025543
05:00se7118895 0.0 1026559
08:00se7118297 0.0 1026650
11:00se71275100 0.0 1026662
14:00+1˚se7126679 0.0 1025726
17:00se714720 0.0 1025697
20:00−1˚se716710 0.0 1025689
7 december, mon
mon723:00−1˚se815710 0.0 1025734
02:00−1˚se8156910 0.0 1025750
05:00−2˚se8166246 0.0 1024647
08:00−2˚se8156423 0.0 1024639
11:00se8155637 0.0 1024689
14:00+1˚se7145447 0.0 1023746
17:00−1˚se71460100 0.0 1024713
20:00−2˚se71464100 0.0 1024716